This demonstration page uses our WeatherBlox Daily Observations layout. Learn more.

Left ArrowRight Arrow

Hourly Observations for April 14, 2015

Temp ( °F °C ) Dew Point ( °F °C ) Humidity (%) Winds ( mph kmh ) Pressure ( in mb ) Visibility ( mi km ) Precip ( " mm )
12:51 am 00:51 Clear 58 14.4 40 4.4 51 51 SE 8 13 30.06 1018 10 16 0.00 0.00
1:51 am 01:51 Clear 57 13.9 38 3.3 49 49 E 10 17 30.05 1018 10 16 0.00 0.00
2:51 am 02:51 Clear 59 15 39 3.9 48 48 SSE 8 13 30.05 1018 10 16 0.00 0.00
3:51 am 03:51 Clear 55 12.8 40 4.4 57 57 SSE 9 15 30.05 1018 10 16 0.00 0.00
4:51 am 04:51 Clear 53 11.7 40 4.4 61 61 SSE 9 15 30.06 1018 10 16 0.00 0.00
5:51 am 05:51 Sunny 53 11.7 40 4.4 61 61 SSE 8 13 30.08 1019 10 16 0.00 0.00
6:51 am 06:51 Sunny 56 13.3 40 4.4 55 55 SE 10 17 30.10 1019 10 16 0.00 0.00
7:51 am 07:51 Sunny 61 16.1 40 4.4 46 46 SE 10 17 30.09 1019 10 16 0.00 0.00
8:51 am 08:51 Sunny 65 18.3 40 4.4 40 40 E 14 22 30.08 1019 10 16 0.00 0.00
9:51 am 09:51 Sunny 68 20 39 3.9 35 35 SSE 12 19 30.07 1018 10 16 0.00 0.00
10:51 am 10:51 Sunny 71 21.7 39 3.9 31 31 SSE 8 13 30.04 1017 10 16 0.00 0.00
11:51 am 11:51 Sunny 74 23.3 37 2.8 26 26 S 9 15 30.00 1016 10 16 0.00 0.00
12:51 pm 12:51 Sunny 76 24.4 35 1.7 23 23 VRB 7 11 29.96 1015 10 16 0.00 0.00
1:51 pm 13:51 Sunny 77 25 34 1.1 21 21 VRB 5 7 29.91 1013 10 16 0.00 0.00
2:51 pm 14:51 Sunny 81 27.2 32 0 17 17 ENE 5 7 29.86 1011 10 16 0.00 0.00
3:51 pm 15:51 Sunny 80 26.7 32 0 17 17 Calm 29.83 1010 10 16 0.00 0.00
4:51 pm 16:51 Sunny 81 27.2 31 -0.6 16 16 S 5 7 29.81 1009 10 16 0.00 0.00
5:51 pm 17:51 Sunny 80 26.7 31 -0.6 17 17 Calm 29.79 1009 10 16 0.00 0.00
6:51 pm 18:51 Clear 77 25 31 -0.6 18 18 SE 6 9 29.77 1008 10 16 0.00 0.00
7:51 pm 19:51 Clear 71 21.7 30 -1.1 22 22 WNW 6 9 29.79 1009 10 16 0.00 0.00
8:51 pm 20:51 Clear 70 21.1 31 -0.6 23 23 WNW 5 7 29.80 1009 10 16 0.00 0.00
9:51 pm 21:51 Clear 66 18.9 30 -1.1 26 26 NNW 6 9 29.79 1009 10 16 0.00 0.00
10:51 pm 22:51 Clear 65 18.3 30 -1.1 27 27 NNW 6 9 29.80 1009 10 16 0.00 0.00
11:51 pm 23:51 Clear 64 17.8 31 -0.6 29 29 NW 9 15 29.80 1009 10 16 0.00 0.00

Powered by AerisWeather